Time,TemperatureF,DewpointF,PressureIn,WindDirection,WindDirectionDegrees,WindSpeedMPH,WindSpeedGustMPH,Humidity,HourlyPrecipIn,Conditions,Clouds,dailyrainin,SoftwareType,DateUTC
2013-10-13 00:03:00,72.4,69.3,29.96,SW,222,0.0,4.0,90,0.00,,,0.00,Wunderground v.1.15,2013-10-13 05:03:00,
2013-10-13 00:08:00,72.2,69.1,29.96,SW,222,0.0,0.0,90,0.00,,,0.00,Wunderground v.1.15,2013-10-13 05:08:00,
2013-10-13 00:13:00,72.2,69.4,29.95,SW,222,0.0,0.0,91,0.00,,,0.00,Wunderground v.1.15,2013-10-13 05:13:00,
2013-10-13 00:18:00,72.1,69.3,29.95,SW,222,0.0,0.0,91,0.00,,,0.00,Wunderground v.1.15,2013-10-13 05:18:00,
2013-10-13 00:23:00,72.0,69.2,29.95,SW,222,0.0,0.0,91,0.00,,,0.00,Wunderground v.1.15,2013-10-13 05:23:00,
2013-10-13 00:28:00,71.9,69.1,29.96,SW,222,0.0,0.0,91,0.00,,,0.00,Wunderground v.1.15,2013-10-13 05:28:00,
2013-10-13 00:33:00,71.9,69.1,29.96,SW,222,0.0,1.0,91,0.00,,,0.00,Wunderground v.1.15,2013-10-13 05:33:00,
2013-10-13 00:38:00,71.9,69.1,29.96,SW,222,0.0,1.0,91,0.00,,,0.00,Wunderground v.1.15,2013-10-13 05:38:00,
2013-10-13 00:43:00,71.8,69.0,29.97,SW,222,0.0,1.0,91,0.00,,,0.00,Wunderground v.1.15,2013-10-13 05:43:00,
2013-10-13 00:48:00,71.8,69.0,29.97,SW,222,0.0,1.0,91,0.00,,,0.00,Wunderground v.1.15,2013-10-13 05:48:00,
2013-10-13 00:53:00,71.7,69.3,29.97,SW,222,0.0,1.0,92,0.00,,,0.00,Wunderground v.1.15,2013-10-13 05:53:00,
2013-10-13 00:58:00,71.7,69.3,29.97,SW,222,0.0,1.0,92,0.00,,,0.00,Wunderground v.1.15,2013-10-13 05:58:00,
2013-10-13 01:03:00,71.6,69.2,29.97,SW,222,0.0,1.0,92,0.00,,,0.00,Wunderground v.1.15,2013-10-13 06:03:00,
2013-10-13 01:08:00,71.5,69.1,29.97,SW,222,0.0,1.0,92,0.00,,,0.00,Wunderground v.1.15,2013-10-13 06:08:00,
2013-10-13 01:13:00,71.4,69.0,29.96,SW,222,0.0,1.0,92,0.00,,,0.00,Wunderground v.1.15,2013-10-13 06:13:00,
2013-10-13 01:18:00,71.4,69.0,29.96,SW,222,0.0,1.0,92,0.00,,,0.00,Wunderground v.1.15,2013-10-13 06:18:00,
2013-10-13 01:23:00,71.3,68.9,29.96,SW,222,0.0,1.0,92,0.00,,,0.00,Wunderground v.1.15,2013-10-13 06:23:00,
2013-10-13 01:28:00,71.2,68.8,29.96,SW,222,0.0,1.0,92,0.00,,,0.00,Wunderground v.1.15,2013-10-13 06:28:00,
2013-10-13 01:33:00,71.2,68.8,29.96,SW,222,0.0,1.0,92,0.00,,,0.00,Wunderground v.1.15,2013-10-13 06:33:00,
2013-10-13 01:38:00,71.1,68.7,29.96,SW,222,0.0,1.0,92,0.00,,,0.00,Wunderground v.1.15,2013-10-13 06:38:00,
2013-10-13 01:43:00,71.2,69.1,29.96,SW,222,0.0,1.0,93,0.00,,,0.00,Wunderground v.1.15,2013-10-13 06:43:00,
2013-10-13 01:48:00,71.1,69.0,29.96,SW,222,1.0,1.0,93,0.00,,,0.00,Wunderground v.1.15,2013-10-13 06:48:00,
2013-10-13 01:53:00,71.1,69.0,29.96,SW,222,1.0,1.0,93,0.00,,,0.00,Wunderground v.1.15,2013-10-13 06:53:00,
2013-10-13 01:58:00,71.0,68.9,29.96,SW,222,0.0,1.0,93,0.00,,,0.00,Wunderground v.1.15,2013-10-13 06:58:00,
2013-10-13 02:03:00,71.0,68.9,29.96,SW,222,0.0,1.0,93,0.00,,,0.00,Wunderground v.1.15,2013-10-13 07:03:00,
2013-10-13 02:08:00,70.9,68.8,29.96,SW,222,0.0,1.0,93,0.00,,,0.00,Wunderground v.1.15,2013-10-13 07:08:00,
2013-10-13 02:13:00,70.8,68.7,29.96,SW,222,0.0,1.0,93,0.00,,,0.00,Wunderground v.1.15,2013-10-13 07:13:00,
2013-10-13 02:18:00,70.7,68.6,29.96,SW,222,1.0,1.0,93,0.00,,,0.00,Wunderground v.1.15,2013-10-13 07:18:00,
2013-10-13 02:28:00,70.6,68.5,29.96,SW,222,0.0,1.0,93,0.00,,,0.00,Wunderground v.1.15,2013-10-13 07:28:00,
2013-10-13 02:33:00,70.6,68.5,29.96,SW,222,0.0,1.0,93,0.00,,,0.00,Wunderground v.1.15,2013-10-13 07:33:00,
2013-10-13 02:38:00,70.5,68.4,29.96,SW,222,0.0,1.0,93,0.00,,,0.00,Wunderground v.1.15,2013-10-13 07:38:00,
2013-10-13 02:43:00,70.4,68.3,29.96,SW,222,0.0,1.0,93,0.00,,,0.00,Wunderground v.1.15,2013-10-13 07:43:00,
2013-10-13 02:48:00,70.4,68.3,29.96,SW,222,0.0,1.0,93,0.00,,,0.00,Wunderground v.1.15,2013-10-13 07:48:00,
2013-10-13 02:53:00,70.4,68.3,29.96,SW,222,0.0,1.0,93,0.00,,,0.00,Wunderground v.1.15,2013-10-13 07:53:00,
2013-10-13 02:58:00,70.3,68.2,29.96,SW,222,0.0,1.0,93,0.00,,,0.00,Wunderground v.1.15,2013-10-13 07:58:00,
2013-10-13 03:03:00,70.3,68.5,29.96,SW,222,0.0,1.0,94,0.00,,,0.00,Wunderground v.1.15,2013-10-13 08:03:00,
2013-10-13 03:08:00,70.2,68.4,29.96,SW,222,0.0,1.0,94,0.00,,,0.00,Wunderground v.1.15,2013-10-13 08:08:00,
2013-10-13 03:13:00,70.2,68.4,29.96,SW,222,0.0,1.0,94,0.00,,,0.00,Wunderground v.1.15,2013-10-13 08:13:00,
2013-10-13 03:18:00,70.1,68.3,29.96,SW,222,0.0,1.0,94,0.00,,,0.00,Wunderground v.1.15,2013-10-13 08:18:00,
2013-10-13 03:23:00,70.0,68.2,29.96,SW,222,0.0,1.0,94,0.00,,,0.00,Wunderground v.1.15,2013-10-13 08:23:00,
2013-10-13 03:28:00,70.0,68.2,29.96,SW,222,0.0,1.0,94,0.00,,,0.00,Wunderground v.1.15,2013-10-13 08:28:00,
2013-10-13 03:33:00,70.0,68.2,29.96,SW,222,0.0,1.0,94,0.00,,,0.00,Wunderground v.1.15,2013-10-13 08:33:00,
2013-10-13 03:38:00,69.9,68.1,29.96,SW,222,1.0,1.0,94,0.00,,,0.00,Wunderground v.1.15,2013-10-13 08:38:00,
2013-10-13 03:43:00,69.9,68.1,29.95,SW,222,1.0,1.0,94,0.00,,,0.00,Wunderground v.1.15,2013-10-13 08:43:00,
2013-10-13 03:48:00,69.9,68.1,29.95,SW,222,0.0,1.0,94,0.00,,,0.00,Wunderground v.1.15,2013-10-13 08:48:00,
2013-10-13 03:53:00,69.9,68.1,29.95,SW,222,0.0,1.0,94,0.00,,,0.00,Wunderground v.1.15,2013-10-13 08:53:00,
2013-10-13 03:58:00,69.8,68.0,29.96,SW,222,0.0,1.0,94,0.00,,,0.00,Wunderground v.1.15,2013-10-13 08:58:00,
2013-10-13 04:08:00,69.8,68.0,29.96,SW,222,1.0,1.0,94,0.00,,,0.00,Wunderground v.1.15,2013-10-13 09:08:00,
2013-10-13 04:13:00,69.9,68.1,29.96,SW,222,1.0,1.0,94,0.00,,,0.00,Wunderground v.1.15,2013-10-13 09:13:00,
2013-10-13 04:18:00,69.9,68.1,29.96,SW,222,1.0,1.0,94,0.00,,,0.00,Wunderground v.1.15,2013-10-13 09:18:00,
2013-10-13 04:23:00,69.8,68.0,29.96,SW,222,0.0,1.0,94,0.00,,,0.00,Wunderground v.1.15,2013-10-13 09:23:00,
2013-10-13 04:28:00,69.8,68.0,29.97,SW,222,1.0,1.0,94,0.00,,,0.00,Wunderground v.1.15,2013-10-13 09:28:00,
2013-10-13 04:33:00,69.9,68.1,29.97,SW,222,1.0,1.0,94,0.00,,,0.00,Wunderground v.1.15,2013-10-13 09:33:00,
2013-10-13 04:38:00,69.9,68.1,29.97,SW,222,1.0,1.0,94,0.00,,,0.00,Wunderground v.1.15,2013-10-13 09:38:00,
2013-10-13 04:43:00,69.8,68.0,29.98,SW,222,0.0,1.0,94,0.00,,,0.00,Wunderground v.1.15,2013-10-13 09:43:00,
2013-10-13 04:48:00,69.7,67.9,29.98,SW,222,0.0,1.0,94,0.00,,,0.00,Wunderground v.1.15,2013-10-13 09:48:00,
2013-10-13 04:53:00,69.6,67.8,29.98,SW,222,0.0,1.0,94,0.00,,,0.00,Wunderground v.1.15,2013-10-13 09:53:00,
2013-10-13 04:58:00,69.5,67.7,29.98,SW,222,0.0,1.0,94,0.00,,,0.00,Wunderground v.1.15,2013-10-13 09:58:00,
2013-10-13 05:03:00,69.4,67.6,29.98,SW,222,0.0,1.0,94,0.00,,,0.00,Wunderground v.1.15,2013-10-13 10:03:00,
2013-10-13 05:08:00,69.3,67.5,29.98,SW,222,0.0,0.0,94,0.00,,,0.00,Wunderground v.1.15,2013-10-13 10:08:00,
2013-10-13 05:13:00,69.2,67.4,29.98,SW,222,0.0,1.0,94,0.00,,,0.00,Wunderground v.1.15,2013-10-13 10:13:00,
2013-10-13 05:23:00,69.2,67.4,29.98,SW,222,0.0,0.0,94,0.00,,,0.00,Wunderground v.1.15,2013-10-13 10:23:00,
2013-10-13 05:28:00,69.1,67.3,29.99,SW,222,0.0,0.0,94,0.00,,,0.00,Wunderground v.1.15,2013-10-13 10:28:00,
2013-10-13 05:33:00,69.0,67.2,29.99,SW,222,0.0,2.0,94,0.00,,,0.00,Wunderground v.1.15,2013-10-13 10:33:00,
2013-10-13 05:38:00,68.9,67.1,29.99,SW,222,0.0,2.0,94,0.00,,,0.00,Wunderground v.1.15,2013-10-13 10:38:00,
2013-10-13 05:43:00,68.7,66.9,29.99,SW,222,0.0,2.0,94,0.00,,,0.00,Wunderground v.1.15,2013-10-13 10:43:00,
2013-10-13 05:48:00,68.6,66.8,29.99,SW,222,0.0,2.0,94,0.00,,,0.00,Wunderground v.1.15,2013-10-13 10:48:00,
2013-10-13 05:53:00,68.5,66.7,29.99,SW,222,0.0,2.0,94,0.00,,,0.00,Wunderground v.1.15,2013-10-13 10:53:00,
2013-10-13 05:58:00,68.3,66.5,29.99,SW,222,0.0,2.0,94,0.00,,,0.00,Wunderground v.1.15,2013-10-13 10:58:00,
2013-10-13 06:03:00,68.2,66.4,29.99,SW,222,0.0,2.0,94,0.00,,,0.00,Wunderground v.1.15,2013-10-13 11:03:00,
2013-10-13 06:08:00,68.1,66.3,29.99,SW,222,0.0,2.0,94,0.00,,,0.00,Wunderground v.1.15,2013-10-13 11:08:00,
2013-10-13 06:13:00,67.9,66.1,29.99,SW,222,0.0,2.0,94,0.00,,,0.00,Wunderground v.1.15,2013-10-13 11:13:00,
2013-10-13 06:18:00,67.9,66.1,29.99,SW,222,0.0,2.0,94,0.00,,,0.00,Wunderground v.1.15,2013-10-13 11:18:00,
2013-10-13 06:23:00,67.8,66.0,29.99,SW,222,0.0,2.0,94,0.00,,,0.00,Wunderground v.1.15,2013-10-13 11:23:00,
2013-10-13 06:28:00,67.7,65.9,30.00,SW,222,0.0,2.0,94,0.00,,,0.00,Wunderground v.1.15,2013-10-13 11:28:00,
2013-10-13 06:33:00,67.7,66.2,30.00,SW,222,0.0,2.0,95,0.00,,,0.00,Wunderground v.1.15,2013-10-13 11:33:00,
2013-10-13 06:38:00,67.6,66.1,30.00,SW,222,0.0,2.0,95,0.00,,,0.00,Wunderground v.1.15,2013-10-13 11:38:00,
2013-10-13 06:43:00,67.5,66.0,30.01,SW,222,0.0,2.0,95,0.00,,,0.00,Wunderground v.1.15,2013-10-13 11:43:00,
2013-10-13 06:48:00,67.4,65.6,30.01,SW,222,0.0,2.0,94,0.00,,,0.00,Wunderground v.1.15,2013-10-13 11:48:00,
2013-10-13 06:53:00,67.2,65.4,30.01,SW,222,0.0,2.0,94,0.00,,,0.00,Wunderground v.1.15,2013-10-13 11:53:00,
2013-10-13 06:58:00,67.1,65.3,30.01,SW,222,0.0,2.0,94,0.00,,,0.00,Wunderground v.1.15,2013-10-13 11:58:00,
2013-10-13 07:03:00,67.0,65.5,30.01,SW,222,0.0,2.0,95,0.00,,,0.00,Wunderground v.1.15,2013-10-13 12:03:00,
2013-10-13 07:08:00,66.9,65.4,30.01,SW,222,0.0,2.0,95,0.00,,,0.00,Wunderground v.1.15,2013-10-13 12:08:00,
2013-10-13 07:13:00,66.8,65.3,30.01,SW,222,0.0,2.0,95,0.00,,,0.00,Wunderground v.1.15,2013-10-13 12:13:00,
2013-10-13 07:18:00,66.7,65.2,30.01,SW,222,0.0,2.0,95,0.00,,,0.00,Wunderground v.1.15,2013-10-13 12:18:00,
2013-10-13 07:28:00,66.7,65.2,30.01,SW,222,0.0,2.0,95,0.00,,,0.00,Wunderground v.1.15,2013-10-13 12:28:00,
2013-10-13 07:33:00,66.7,65.2,30.01,SW,222,0.0,2.0,95,0.00,,,0.00,Wunderground v.1.15,2013-10-13 12:33:00,
2013-10-13 07:38:00,66.8,65.3,30.01,SW,222,0.0,2.0,95,0.00,,,0.00,Wunderground v.1.15,2013-10-13 12:38:00,
2013-10-13 07:43:00,66.9,65.4,30.01,SW,222,0.0,2.0,95,0.00,,,0.00,Wunderground v.1.15,2013-10-13 12:43:00,
2013-10-13 07:48:00,67.1,65.6,30.01,SW,222,0.0,2.0,95,0.00,,,0.00,Wunderground v.1.15,2013-10-13 12:48:00,
2013-10-13 07:53:00,67.3,65.8,30.01,SW,222,0.0,2.0,95,0.00,,,0.00,Wunderground v.1.15,2013-10-13 12:53:00,
2013-10-13 07:58:00,67.5,66.0,30.02,SW,222,0.0,2.0,95,0.00,,,0.00,Wunderground v.1.15,2013-10-13 12:58:00,
2013-10-13 08:03:00,67.6,66.1,30.02,SW,222,0.0,2.0,95,0.00,,,0.00,Wunderground v.1.15,2013-10-13 13:03:00,
2013-10-13 08:08:00,67.7,66.2,30.02,SW,222,0.0,2.0,95,0.00,,,0.00,Wunderground v.1.15,2013-10-13 13:08:00,
2013-10-13 08:13:00,68.0,66.5,30.03,SW,222,0.0,2.0,95,0.00,,,0.00,Wunderground v.1.15,2013-10-13 13:13:00,
2013-10-13 08:18:00,68.2,67.0,30.03,SW,222,0.0,2.0,96,0.00,,,0.00,Wunderground v.1.15,2013-10-13 13:18:00,
2013-10-13 08:23:00,68.5,67.3,30.03,SW,222,0.0,2.0,96,0.00,,,0.00,Wunderground v.1.15,2013-10-13 13:23:00,
2013-10-13 08:28:00,68.9,67.7,30.04,SW,222,0.0,2.0,96,0.00,,,0.00,Wunderground v.1.15,2013-10-13 13:28:00,
2013-10-13 08:33:00,69.3,68.1,30.04,SW,222,0.0,2.0,96,0.00,,,0.00,Wunderground v.1.15,2013-10-13 13:33:00,
2013-10-13 08:38:00,69.7,68.5,30.04,SW,222,0.0,2.0,96,0.00,,,0.00,Wunderground v.1.15,2013-10-13 13:38:00,
2013-10-13 08:43:00,70.1,68.9,30.04,SW,222,0.0,2.0,96,0.00,,,0.00,Wunderground v.1.15,2013-10-13 13:43:00,
2013-10-13 08:48:00,70.5,69.3,30.04,SW,222,0.0,2.0,96,0.00,,,0.00,Wunderground v.1.15,2013-10-13 13:48:00,
2013-10-13 08:53:00,71.0,69.8,30.04,SW,222,0.0,2.0,96,0.00,,,0.00,Wunderground v.1.15,2013-10-13 13:53:00,
2013-10-13 08:58:00,71.5,70.3,30.05,SW,222,1.0,1.0,96,0.00,,,0.00,Wunderground v.1.15,2013-10-13 13:58:00,
2013-10-13 09:03:00,72.0,70.8,30.05,SW,221,1.0,2.0,96,0.00,,,0.00,Wunderground v.1.15,2013-10-13 14:03:00,
2013-10-13 09:08:00,72.6,71.4,30.05,SE,141,1.0,2.0,96,0.00,,,0.00,Wunderground v.1.15,2013-10-13 14:08:00,
2013-10-13 09:13:00,73.0,71.8,30.05,ENE,69,1.0,2.0,96,0.00,,,0.00,Wunderground v.1.15,2013-10-13 14:13:00,
2013-10-13 09:18:00,73.4,71.9,30.05,NE,41,1.0,1.0,95,0.00,,,0.00,Wunderground v.1.15,2013-10-13 14:18:00,
2013-10-13 09:23:00,73.8,72.0,30.05,NE,44,1.0,2.0,94,0.00,,,0.00,Wunderground v.1.15,2013-10-13 14:23:00,
2013-10-13 09:33:00,74.8,71.3,30.06,ENE,58,1.0,2.0,89,0.00,,,0.00,Wunderground v.1.15,2013-10-13 14:33:00,
2013-10-13 09:38:00,75.2,71.1,30.06,NNE,29,1.0,2.0,87,0.00,,,0.00,Wunderground v.1.15,2013-10-13 14:38:00,
2013-10-13 09:43:00,75.5,71.0,30.07,NE,44,1.0,2.0,86,0.00,,,0.00,Wunderground v.1.15,2013-10-13 14:43:00,
2013-10-13 09:48:00,75.8,71.0,30.07,NE,44,1.0,2.0,85,0.00,,,0.00,Wunderground v.1.15,2013-10-13 14:48:00,
2013-10-13 09:53:00,76.1,71.3,30.07,NE,43,0.0,2.0,85,0.00,,,0.00,Wunderground v.1.15,2013-10-13 14:53:00,
2013-10-13 09:58:00,76.4,71.6,30.06,South,173,0.0,2.0,85,0.00,,,0.00,Wunderground v.1.15,2013-10-13 14:58:00,
2013-10-13 10:03:00,76.7,71.5,30.06,NE,51,1.0,2.0,84,0.00,,,0.00,Wunderground v.1.15,2013-10-13 15:03:00,
2013-10-13 10:08:00,77.0,71.1,30.06,SSE,155,1.0,2.0,82,0.00,,,0.00,Wunderground v.1.15,2013-10-13 15:08:00,
2013-10-13 10:13:00,77.3,71.4,30.07,East,100,1.0,2.0,82,0.00,,,0.00,Wunderground v.1.15,2013-10-13 15:13:00,
2013-10-13 10:18:00,77.8,71.5,30.07,ENE,63,1.0,2.0,81,0.00,,,0.00,Wunderground v.1.15,2013-10-13 15:18:00,
2013-10-13 10:23:00,78.5,71.8,30.07,East,79,1.0,2.0,80,0.00,,,0.00,Wunderground v.1.15,2013-10-13 15:23:00,
2013-10-13 10:28:00,79.2,71.0,30.06,NNE,22,1.0,3.0,76,0.00,,,0.00,Wunderground v.1.15,2013-10-13 15:28:00,
2013-10-13 10:33:00,79.6,71.0,30.06,South,170,2.0,3.0,75,0.00,,,0.00,Wunderground v.1.15,2013-10-13 15:33:00,
2013-10-13 10:38:00,80.3,69.6,30.06,SSE,164,2.0,2.0,70,0.00,,,0.00,Wunderground v.1.15,2013-10-13 15:38:00,
2013-10-13 10:43:00,81.0,69.4,30.06,NE,53,2.0,4.0,68,0.00,,,0.00,Wunderground v.1.15,2013-10-13 15:43:00,
2013-10-13 10:48:00,81.2,70.5,30.06,NE,49,2.0,2.0,70,0.00,,,0.00,Wunderground v.1.15,2013-10-13 15:48:00,
2013-10-13 10:53:00,81.8,70.2,30.06,NE,42,2.0,3.0,68,0.00,,,0.00,Wunderground v.1.15,2013-10-13 15:53:00,
2013-10-13 10:58:00,81.7,70.1,30.06,ESE,113,2.0,2.0,68,0.00,,,0.00,Wunderground v.1.15,2013-10-13 15:58:00,
2013-10-13 11:03:00,81.5,70.8,30.06,NE,48,2.0,2.0,70,0.00,,,0.00,Wunderground v.1.15,2013-10-13 16:03:00,
2013-10-13 11:08:00,81.2,70.5,30.06,NE,52,2.0,2.0,70,0.00,,,0.00,Wunderground v.1.15,2013-10-13 16:08:00,
2013-10-13 11:13:00,81.2,70.9,30.06,NE,52,2.0,2.0,71,0.00,,,0.00,Wunderground v.1.15,2013-10-13 16:13:00,
2013-10-13 11:18:00,81.6,70.9,30.06,NE,42,1.0,2.0,70,0.00,,,0.00,Wunderground v.1.15,2013-10-13 16:18:00,
2013-10-13 11:23:00,82.1,70.9,30.06,East,95,1.0,2.0,69,0.00,,,0.00,Wunderground v.1.15,2013-10-13 16:23:00,
2013-10-13 11:28:00,82.7,71.5,30.05,North,5,1.0,1.0,69,0.00,,,0.00,Wunderground v.1.15,2013-10-13 16:28:00,
2013-10-13 11:33:00,82.5,70.9,30.05,NNE,23,2.0,2.0,68,0.00,,,0.00,Wunderground v.1.15,2013-10-13 16:33:00,
2013-10-13 11:38:00,81.8,70.6,30.05,NNE,31,3.0,3.0,69,0.00,,,0.00,Wunderground v.1.15,2013-10-13 16:38:00,
2013-10-13 11:43:00,81.3,70.2,30.05,NE,53,3.0,3.0,69,0.00,,,0.00,Wunderground v.1.15,2013-10-13 16:43:00,
2013-10-13 11:48:00,81.0,70.3,30.05,NE,48,3.0,3.0,70,0.00,,,0.00,Wunderground v.1.15,2013-10-13 16:48:00,
2013-10-13 11:53:00,81.1,70.0,30.05,NE,52,2.0,3.0,69,0.00,,,0.00,Wunderground v.1.15,2013-10-13 16:53:00,
2013-10-13 11:58:00,81.6,71.3,30.05,NE,35,2.0,2.0,71,0.00,,,0.00,Wunderground v.1.15,2013-10-13 16:58:00,
2013-10-13 12:03:00,82.4,71.2,30.05,NNE,25,2.0,2.0,69,0.00,,,0.00,Wunderground v.1.15,2013-10-13 17:03:00,
2013-10-13 12:08:00,83.4,71.7,30.05,NE,46,2.0,2.0,68,0.00,,,0.00,Wunderground v.1.15,2013-10-13 17:08:00,
2013-10-13 12:13:00,83.8,71.7,30.04,NNE,30,2.0,3.0,67,0.00,,,0.00,Wunderground v.1.15,2013-10-13 17:13:00,
2013-10-13 12:18:00,83.9,71.3,30.04,NE,54,2.0,2.0,66,0.00,,,0.00,Wunderground v.1.15,2013-10-13 17:18:00,
2013-10-13 12:23:00,83.8,71.2,30.04,NNE,33,2.0,2.0,66,0.00,,,0.00,Wunderground v.1.15,2013-10-13 17:23:00,
2013-10-13 12:28:00,83.9,70.9,30.04,NE,51,2.0,2.0,65,0.00,,,0.00,Wunderground v.1.15,2013-10-13 17:28:00,
2013-10-13 12:33:00,84.5,70.5,30.04,East,83,2.0,2.0,63,0.00,,,0.00,Wunderground v.1.15,2013-10-13 17:33:00,
2013-10-13 12:38:00,84.7,69.8,30.04,NE,48,2.0,2.0,61,0.00,,,0.00,Wunderground v.1.15,2013-10-13 17:38:00,
2013-10-13 12:43:00,85.1,70.1,30.04,SE,126,1.0,2.0,61,0.00,,,0.00,Wunderground v.1.15,2013-10-13 17:43:00,
2013-10-13 12:48:00,85.1,69.7,30.04,SSE,158,1.0,2.0,60,0.00,,,0.00,Wunderground v.1.15,2013-10-13 17:48:00,
2013-10-13 12:53:00,85.3,68.3,30.04,South,169,1.0,2.0,57,0.00,,,0.00,Wunderground v.1.15,2013-10-13 17:53:00,
2013-10-13 12:58:00,85.8,68.8,30.03,SSE,168,1.0,1.0,57,0.00,,,0.00,Wunderground v.1.15,2013-10-13 17:58:00,
2013-10-13 13:03:00,85.8,69.3,30.03,ENE,59,1.0,2.0,58,0.00,,,0.00,Wunderground v.1.15,2013-10-13 18:03:00,
2013-10-13 13:08:00,85.7,68.7,30.03,SE,146,2.0,2.0,57,0.00,,,0.00,Wunderground v.1.15,2013-10-13 18:08:00,
2013-10-13 13:13:00,86.1,68.0,30.02,SSE,155,2.0,2.0,55,0.00,,,0.00,Wunderground v.1.15,2013-10-13 18:13:00,
2013-10-13 13:18:00,85.8,68.3,30.02,NE,37,1.0,2.0,56,0.00,,,0.00,Wunderground v.1.15,2013-10-13 18:18:00,
2013-10-13 13:23:00,85.6,68.6,30.02,SW,218,1.0,3.0,57,0.00,,,0.00,Wunderground v.1.15,2013-10-13 18:23:00,
2013-10-13 13:28:00,86.0,69.0,30.01,South,190,1.0,2.0,57,0.00,,,0.00,Wunderground v.1.15,2013-10-13 18:28:00,
2013-10-13 13:33:00,86.7,68.6,30.01,SSE,155,1.0,2.0,55,0.00,,,0.00,Wunderground v.1.15,2013-10-13 18:33:00,
2013-10-13 13:38:00,87.1,67.9,30.01,ENE,62,2.0,2.0,53,0.00,,,0.00,Wunderground v.1.15,2013-10-13 18:38:00,
2013-10-13 13:43:00,87.1,68.4,30.00,SSW,196,2.0,2.0,54,0.00,,,0.00,Wunderground v.1.15,2013-10-13 18:43:00,
2013-10-13 13:48:00,86.8,67.6,30.00,NE,53,2.0,3.0,53,0.00,,,0.00,Wunderground v.1.15,2013-10-13 18:48:00,
2013-10-13 13:53:00,86.0,68.0,30.00,ENE,65,2.0,3.0,55,0.00,,,0.00,Wunderground v.1.15,2013-10-13 18:53:00,
2013-10-13 13:58:00,85.7,69.7,29.99,ENE,63,1.0,1.0,59,0.00,,,0.00,Wunderground v.1.15,2013-10-13 18:58:00,
2013-10-13 14:03:00,85.4,69.4,29.99,ENE,63,0.0,2.0,59,0.00,,,0.00,Wunderground v.1.15,2013-10-13 19:03:00,
2013-10-13 14:08:00,85.2,67.2,29.99,ENE,63,0.0,2.0,55,0.00,,,0.00,Wunderground v.1.15,2013-10-13 19:08:00,
2013-10-13 14:13:00,85.7,68.7,29.98,South,169,1.0,2.0,57,0.00,,,0.00,Wunderground v.1.15,2013-10-13 19:13:00,
2013-10-13 14:18:00,86.3,67.2,29.98,SSW,212,1.0,2.0,53,0.00,,,0.00,Wunderground v.1.15,2013-10-13 19:18:00,
2013-10-13 14:23:00,86.7,67.0,29.98,NE,49,1.0,2.0,52,0.00,,,0.00,Wunderground v.1.15,2013-10-13 19:23:00,
2013-10-13 14:28:00,87.0,67.8,29.98,ENE,63,1.0,1.0,53,0.00,,,0.00,Wunderground v.1.15,2013-10-13 19:28:00,
2013-10-13 14:33:00,87.0,67.2,29.98,ENE,62,1.0,2.0,52,0.00,,,0.00,Wunderground v.1.15,2013-10-13 19:33:00,
2013-10-13 14:38:00,87.0,67.2,29.98,NE,49,2.0,3.0,52,0.00,,,0.00,Wunderground v.1.15,2013-10-13 19:38:00,
2013-10-13 14:43:00,86.7,68.1,29.98,NNE,33,2.0,3.0,54,0.00,,,0.00,Wunderground v.1.15,2013-10-13 19:43:00,
2013-10-13 14:48:00,86.4,67.8,29.98,ENE,59,3.0,5.0,54,0.00,,,0.00,Wunderground v.1.15,2013-10-13 19:48:00,
2013-10-13 14:53:00,85.7,66.6,29.98,NNE,30,2.0,5.0,53,0.00,,,0.00,Wunderground v.1.15,2013-10-13 19:53:00,
2013-10-13 14:58:00,84.9,66.4,29.97,NNE,28,2.0,2.0,54,0.00,,,0.00,Wunderground v.1.15,2013-10-13 19:58:00,
2013-10-13 15:03:00,84.7,67.3,29.97,NE,55,2.0,2.0,56,0.00,,,0.00,Wunderground v.1.15,2013-10-13 20:03:00,
2013-10-13 15:08:00,84.6,67.7,29.97,ENE,69,2.0,2.0,57,0.00,,,0.00,Wunderground v.1.15,2013-10-13 20:08:00,
2013-10-13 15:13:00,85.0,66.0,29.97,NE,42,1.0,2.0,53,0.00,,,0.00,Wunderground v.1.15,2013-10-13 20:13:00,
2013-10-13 15:18:00,85.6,66.0,29.97,ENE,71,1.0,2.0,52,0.00,,,0.00,Wunderground v.1.15,2013-10-13 20:18:00,
2013-10-13 15:23:00,86.1,65.9,29.97,NE,56,1.0,3.0,51,0.00,,,0.00,Wunderground v.1.15,2013-10-13 20:23:00,
2013-10-13 15:28:00,86.8,68.2,29.97,NNE,33,2.0,4.0,54,0.00,,,0.00,Wunderground v.1.15,2013-10-13 20:28:00,
2013-10-13 15:33:00,86.9,68.3,29.97,NNE,22,2.0,6.0,54,0.00,,,0.00,Wunderground v.1.15,2013-10-13 20:33:00,
2013-10-13 15:38:00,86.8,68.2,29.97,NE,38,3.0,6.0,54,0.00,,,0.00,Wunderground v.1.15,2013-10-13 20:38:00,
2013-10-13 15:43:00,86.4,68.3,29.97,NE,55,3.0,6.0,55,0.00,,,0.00,Wunderground v.1.15,2013-10-13 20:43:00,
2013-10-13 15:48:00,86.1,68.0,29.97,NE,51,3.0,6.0,55,0.00,,,0.00,Wunderground v.1.15,2013-10-13 20:48:00,
2013-10-13 15:53:00,86.0,68.5,29.97,ENE,57,3.0,6.0,56,0.00,,,0.00,Wunderground v.1.15,2013-10-13 20:53:00,
2013-10-13 15:58:00,86.1,68.6,29.97,ESE,105,3.0,3.0,56,0.00,,,0.00,Wunderground v.1.15,2013-10-13 20:58:00,
2013-10-13 16:03:00,86.5,68.4,29.97,ENE,67,2.0,6.0,55,0.00,,,0.00,Wunderground v.1.15,2013-10-13 21:03:00,
2013-10-13 16:08:00,86.9,68.8,29.97,ENE,61,1.0,6.0,55,0.00,,,0.00,Wunderground v.1.15,2013-10-13 21:08:00,
2013-10-13 16:13:00,86.8,67.6,29.96,NNE,21,2.0,6.0,53,0.00,,,0.00,Wunderground v.1.15,2013-10-13 21:13:00,
2013-10-13 16:18:00,85.9,67.9,29.96,NNE,28,4.0,6.0,55,0.00,,,0.00,Wunderground v.1.15,2013-10-13 21:18:00,
2013-10-13 16:23:00,85.5,68.0,29.96,NE,44,4.0,6.0,56,0.00,,,0.00,Wunderground v.1.15,2013-10-13 21:23:00,
2013-10-13 16:28:00,84.8,68.4,29.97,NE,45,2.0,6.0,58,0.00,,,0.00,Wunderground v.1.15,2013-10-13 21:28:00,
2013-10-13 16:33:00,84.3,67.9,29.97,NE,37,2.0,6.0,58,0.00,,,0.00,Wunderground v.1.15,2013-10-13 21:33:00,
2013-10-13 16:38:00,84.2,68.3,29.97,NE,40,2.0,6.0,59,0.00,,,0.00,Wunderground v.1.15,2013-10-13 21:38:00,
2013-10-13 16:43:00,84.5,67.6,29.97,NE,55,2.0,6.0,57,0.00,,,0.00,Wunderground v.1.15,2013-10-13 21:43:00,
2013-10-13 16:48:00,84.8,68.9,29.97,NE,44,2.0,6.0,59,0.00,,,0.00,Wunderground v.1.15,2013-10-13 21:48:00,
2013-10-13 16:53:00,84.9,69.0,29.97,NE,41,2.0,6.0,59,0.00,,,0.00,Wunderground v.1.15,2013-10-13 21:53:00,
2013-10-13 16:58:00,84.6,68.7,29.97,NE,46,3.0,3.0,59,0.00,,,0.00,Wunderground v.1.15,2013-10-13 21:58:00,
2013-10-13 17:03:00,84.1,69.2,29.97,ENE,60,4.0,4.0,61,0.00,,,0.00,Wunderground v.1.15,2013-10-13 22:03:00,
2013-10-13 17:08:00,83.8,68.9,29.97,NE,49,3.0,3.0,61,0.00,,,0.00,Wunderground v.1.15,2013-10-13 22:08:00,
2013-10-13 17:13:00,83.5,69.1,29.97,NE,51,3.0,6.0,62,0.00,,,0.00,Wunderground v.1.15,2013-10-13 22:13:00,
2013-10-13 17:18:00,83.3,69.4,29.97,NE,45,2.0,6.0,63,0.00,,,0.00,Wunderground v.1.15,2013-10-13 22:18:00,
2013-10-13 17:23:00,83.0,69.1,29.97,NE,40,2.0,6.0,63,0.00,,,0.00,Wunderground v.1.15,2013-10-13 22:23:00,
2013-10-13 17:28:00,82.5,69.5,29.98,NE,37,3.0,6.0,65,0.00,,,0.00,Wunderground v.1.15,2013-10-13 22:28:00,
2013-10-13 17:33:00,82.0,69.5,29.98,NE,50,3.0,6.0,66,0.00,,,0.00,Wunderground v.1.15,2013-10-13 22:33:00,
2013-10-13 17:38:00,81.6,69.6,29.98,NE,48,3.0,3.0,67,0.00,,,0.00,Wunderground v.1.15,2013-10-13 22:38:00,
2013-10-13 17:43:00,81.3,69.7,29.98,NE,49,2.0,6.0,68,0.00,,,0.00,Wunderground v.1.15,2013-10-13 22:43:00,
2013-10-13 17:48:00,81.0,69.9,29.98,NE,44,2.0,2.0,69,0.00,,,0.00,Wunderground v.1.15,2013-10-13 22:48:00,
2013-10-13 17:53:00,80.7,69.6,29.98,ENE,60,2.0,3.0,69,0.00,,,0.00,Wunderground v.1.15,2013-10-13 22:53:00,
2013-10-13 17:58:00,80.3,69.6,29.98,NE,53,2.0,6.0,70,0.00,,,0.00,Wunderground v.1.15,2013-10-13 22:58:00,
2013-10-13 18:03:00,80.1,69.4,29.98,ENE,57,2.0,6.0,70,0.00,,,0.00,Wunderground v.1.15,2013-10-13 23:03:00,
2013-10-13 18:08:00,79.8,69.6,29.98,NE,35,2.0,6.0,71,0.00,,,0.00,Wunderground v.1.15,2013-10-13 23:08:00,
2013-10-13 18:13:00,79.6,69.4,29.98,NNE,32,2.0,6.0,71,0.00,,,0.00,Wunderground v.1.15,2013-10-13 23:13:00,
2013-10-13 18:18:00,79.4,69.2,29.98,NE,54,2.0,2.0,71,0.00,,,0.00,Wunderground v.1.15,2013-10-13 23:18:00,
2013-10-13 18:23:00,79.2,69.0,29.98,NE,52,2.0,6.0,71,0.00,,,0.00,Wunderground v.1.15,2013-10-13 23:23:00,
2013-10-13 18:28:00,78.9,69.1,29.99,NE,53,1.0,6.0,72,0.00,,,0.00,Wunderground v.1.15,2013-10-13 23:28:00,
2013-10-13 18:33:00,78.6,69.6,29.99,NE,53,1.0,6.0,74,0.00,,,0.00,Wunderground v.1.15,2013-10-13 23:33:00,
2013-10-13 18:38:00,78.2,69.2,29.99,NE,53,1.0,6.0,74,0.00,,,0.00,Wunderground v.1.15,2013-10-13 23:38:00,
2013-10-13 18:43:00,77.7,69.1,29.99,NE,53,1.0,6.0,75,0.00,,,0.00,Wunderground v.1.15,2013-10-13 23:43:00,
2013-10-13 18:48:00,77.3,68.8,29.99,NE,53,1.0,6.0,75,0.00,,,0.00,Wunderground v.1.15,2013-10-13 23:48:00,
2013-10-13 18:58:00,77.0,68.5,29.99,NE,53,1.0,6.0,75,0.00,,,0.00,Wunderground v.1.15,2013-10-13 23:58:00,
2013-10-13 19:03:00,76.8,68.7,29.99,NE,53,1.0,6.0,76,0.00,,,0.00,Wunderground v.1.15,2013-10-14 00:03:00,
2013-10-13 19:08:00,76.3,68.9,29.99,NE,53,1.0,6.0,78,0.00,,,0.00,Wunderground v.1.15,2013-10-14 00:08:00,
2013-10-13 19:13:00,75.8,68.4,30.00,NE,53,1.0,6.0,78,0.00,,,0.00,Wunderground v.1.15,2013-10-14 00:13:00,
2013-10-13 19:18:00,75.4,68.8,30.00,NE,53,1.0,1.0,80,0.00,,,0.00,Wunderground v.1.15,2013-10-14 00:18:00,
2013-10-13 19:23:00,75.0,68.4,30.00,NE,53,1.0,6.0,80,0.00,,,0.00,Wunderground v.1.15,2013-10-14 00:23:00,
2013-10-13 19:28:00,74.8,68.6,30.00,NE,53,1.0,6.0,81,0.00,,,0.00,Wunderground v.1.15,2013-10-14 00:28:00,
2013-10-13 19:33:00,74.7,68.5,30.00,NE,53,1.0,6.0,81,0.00,,,0.00,Wunderground v.1.15,2013-10-14 00:33:00,
2013-10-13 19:38:00,74.7,68.5,30.00,NE,53,1.0,6.0,81,0.00,,,0.00,Wunderground v.1.15,2013-10-14 00:38:00,
2013-10-13 19:43:00,74.8,68.2,30.00,NE,53,1.0,6.0,80,0.00,,,0.00,Wunderground v.1.15,2013-10-14 00:43:00,
2013-10-13 19:48:00,75.0,68.4,30.00,NE,53,1.0,6.0,80,0.00,,,0.00,Wunderground v.1.15,2013-10-14 00:48:00,
2013-10-13 19:53:00,75.2,68.6,30.00,NE,53,1.0,6.0,80,0.00,,,0.00,Wunderground v.1.15,2013-10-14 00:53:00,
2013-10-13 19:58:00,75.1,68.5,30.01,NE,53,1.0,6.0,80,0.00,,,0.00,Wunderground v.1.15,2013-10-14 00:58:00,
2013-10-13 20:03:00,75.0,68.4,30.01,NE,51,2.0,6.0,80,0.00,,,0.00,Wunderground v.1.15,2013-10-14 01:03:00,
2013-10-13 20:08:00,75.1,68.5,30.01,NE,35,2.0,6.0,80,0.00,,,0.00,Wunderground v.1.15,2013-10-14 01:08:00,
2013-10-13 20:13:00,75.2,68.6,30.01,NE,50,2.0,6.0,80,0.00,,,0.00,Wunderground v.1.15,2013-10-14 01:13:00,
2013-10-13 20:18:00,75.1,68.5,30.01,NE,36,3.0,3.0,80,0.00,,,0.00,Wunderground v.1.15,2013-10-14 01:18:00,
2013-10-13 20:23:00,75.0,68.4,30.01,NNE,29,2.0,6.0,80,0.00,,,0.00,Wunderground v.1.15,2013-10-14 01:23:00,
2013-10-13 20:28:00,74.9,68.3,30.01,NNE,32,3.0,3.0,80,0.00,,,0.00,Wunderground v.1.15,2013-10-14 01:28:00,
2013-10-13 20:33:00,74.7,68.1,30.01,NE,45,2.0,6.0,80,0.00,,,0.00,Wunderground v.1.15,2013-10-14 01:33:00,
2013-10-13 20:38:00,74.6,68.4,30.01,NE,51,2.0,6.0,81,0.00,,,0.00,Wunderground v.1.15,2013-10-14 01:38:00,
2013-10-13 20:43:00,74.5,68.3,30.02,NE,49,2.0,6.0,81,0.00,,,0.00,Wunderground v.1.15,2013-10-14 01:43:00,
2013-10-13 20:48:00,74.3,68.1,30.02,NE,40,2.0,6.0,81,0.00,,,0.00,Wunderground v.1.15,2013-10-14 01:48:00,
2013-10-13 20:53:00,74.2,68.0,30.02,NE,38,2.0,6.0,81,0.00,,,0.00,Wunderground v.1.15,2013-10-14 01:53:00,
2013-10-13 20:58:00,74.1,67.9,30.03,NE,35,2.0,6.0,81,0.00,,,0.00,Wunderground v.1.15,2013-10-14 01:58:00,
2013-10-13 21:03:00,74.0,68.2,30.03,NE,35,2.0,6.0,82,0.00,,,0.00,Wunderground v.1.15,2013-10-14 02:03:00,
2013-10-13 21:08:00,73.9,68.1,30.03,NE,34,2.0,2.0,82,0.00,,,0.00,Wunderground v.1.15,2013-10-14 02:08:00,
2013-10-13 21:13:00,73.7,67.9,30.03,NE,42,2.0,6.0,82,0.00,,,0.00,Wunderground v.1.15,2013-10-14 02:13:00,
2013-10-13 21:18:00,73.6,67.8,30.03,NE,41,2.0,2.0,82,0.00,,,0.00,Wunderground v.1.15,2013-10-14 02:18:00,
2013-10-13 21:23:00,73.5,68.0,30.03,NE,36,2.0,6.0,83,0.00,,,0.00,Wunderground v.1.15,2013-10-14 02:23:00,
2013-10-13 21:28:00,73.4,67.9,30.03,NE,41,2.0,6.0,83,0.00,,,0.00,Wunderground v.1.15,2013-10-14 02:28:00,
2013-10-13 21:33:00,73.3,67.8,30.03,NE,36,2.0,6.0,83,0.00,,,0.00,Wunderground v.1.15,2013-10-14 02:33:00,
2013-10-13 21:38:00,73.2,67.7,30.03,NE,38,2.0,2.0,83,0.00,,,0.00,Wunderground v.1.15,2013-10-14 02:38:00,
2013-10-13 21:43:00,73.0,67.5,30.03,East,88,2.0,6.0,83,0.00,,,0.00,Wunderground v.1.15,2013-10-14 02:43:00,
2013-10-13 21:48:00,72.9,67.8,30.03,East,87,2.0,2.0,84,0.00,,,0.00,Wunderground v.1.15,2013-10-14 02:48:00,
2013-10-13 21:53:00,72.7,67.6,30.03,East,88,1.0,6.0,84,0.00,,,0.00,Wunderground v.1.15,2013-10-14 02:53:00,
2013-10-13 21:58:00,72.5,67.4,30.03,East,87,1.0,6.0,84,0.00,,,0.00,Wunderground v.1.15,2013-10-14 02:58:00,
2013-10-13 22:03:00,72.2,67.4,30.03,East,88,1.0,6.0,85,0.00,,,0.00,Wunderground v.1.15,2013-10-14 03:03:00,
2013-10-13 22:08:00,72.0,67.2,30.03,East,88,1.0,6.0,85,0.00,,,0.00,Wunderground v.1.15,2013-10-14 03:08:00,
2013-10-13 22:13:00,71.6,67.2,30.03,East,88,1.0,6.0,86,0.00,,,0.00,Wunderground v.1.15,2013-10-14 03:13:00,
2013-10-13 22:18:00,71.2,66.8,30.03,East,87,1.0,6.0,86,0.00,,,0.00,Wunderground v.1.15,2013-10-14 03:18:00,
2013-10-13 22:23:00,71.0,66.9,30.03,East,88,1.0,6.0,87,0.00,,,0.00,Wunderground v.1.15,2013-10-14 03:23:00,
2013-10-13 22:28:00,70.8,67.1,30.03,NE,53,1.0,6.0,88,0.00,,,0.00,Wunderground v.1.15,2013-10-14 03:28:00,
2013-10-13 22:33:00,70.8,67.1,30.03,NNE,31,2.0,6.0,88,0.00,,,0.00,Wunderground v.1.15,2013-10-14 03:33:00,
2013-10-13 22:38:00,71.0,67.3,30.03,NNE,32,2.0,6.0,88,0.00,,,0.00,Wunderground v.1.15,2013-10-14 03:38:00,
2013-10-13 22:43:00,71.1,67.0,30.03,NE,35,2.0,6.0,87,0.00,,,0.00,Wunderground v.1.15,2013-10-14 03:43:00,
2013-10-13 22:48:00,71.1,67.0,30.03,NE,34,1.0,6.0,87,0.00,,,0.00,Wunderground v.1.15,2013-10-14 03:48:00,
2013-10-13 22:53:00,71.0,66.9,30.03,ENE,60,1.0,6.0,87,0.00,,,0.00,Wunderground v.1.15,2013-10-14 03:53:00,
2013-10-13 22:58:00,71.0,67.3,30.03,NE,53,2.0,6.0,88,0.00,,,0.00,Wunderground v.1.15,2013-10-14 03:58:00,
2013-10-13 23:03:00,70.9,67.2,30.03,ENE,58,2.0,6.0,88,0.00,,,0.00,Wunderground v.1.15,2013-10-14 04:03:00,
2013-10-13 23:08:00,70.8,66.7,30.03,NE,48,2.0,6.0,87,0.00,,,0.00,Wunderground v.1.15,2013-10-14 04:08:00,
2013-10-13 23:13:00,70.8,66.7,30.03,NE,40,2.0,6.0,87,0.00,,,0.00,Wunderground v.1.15,2013-10-14 04:13:00,
2013-10-13 23:18:00,70.8,66.7,30.03,NE,37,2.0,6.0,87,0.00,,,0.00,Wunderground v.1.15,2013-10-14 04:18:00,
2013-10-13 23:23:00,70.8,66.7,30.03,NNE,30,2.0,6.0,87,0.00,,,0.00,Wunderground v.1.15,2013-10-14 04:23:00,
2013-10-13 23:28:00,70.7,66.6,30.03,NE,34,2.0,6.0,87,0.00,,,0.00,Wunderground v.1.15,2013-10-14 04:28:00,
2013-10-13 23:33:00,70.6,66.5,30.03,NE,40,2.0,6.0,87,0.00,,,0.00,Wunderground v.1.15,2013-10-14 04:33:00,
2013-10-13 23:38:00,70.5,66.4,30.03,NE,36,2.0,2.0,87,0.00,,,0.00,Wunderground v.1.15,2013-10-14 04:38:00,
2013-10-13 23:43:00,70.4,66.3,30.02,NE,51,2.0,6.0,87,0.00,,,0.00,Wunderground v.1.15,2013-10-14 04:43:00,
2013-10-13 23:48:00,70.3,66.2,30.02,NE,44,2.0,6.0,87,0.00,,,0.00,Wunderground v.1.15,2013-10-14 04:48:00,
2013-10-13 23:53:00,70.3,66.2,30.02,NE,55,2.0,6.0,87,0.00,,,0.00,Wunderground v.1.15,2013-10-14 04:53:00,
2013-10-13 23:58:00,70.2,66.1,30.01,ENE,57,2.0,6.0,87,0.00,,,0.00,Wunderground v.1.15,2013-10-14 04:58:00,